#timestamp,LO_Frequency,Hit,StdDev 
1637906415.2,286046998.7,N
1637906435.0,286046997.4,N
1637906435.9,286046997.4,N
1637906455.8,286046999.5,N
1637906475.6,286046996.6,N
1637906495.4,286046996.7,N
1637906515.3,286046997.8,N
1637906535.1,286046996.7,N
1637906555.9,286046998.0,N
1637906575.7,286046995.0,Y
1637906595.5,286046997.8,P
1637906615.4,286046997.0,P
1637906635.2,286047001.2,N
1637906655.0,286046999.0,N
1637906655.9,286046999.0,N
1637906675.8,286046998.2,N
1637906695.6,286047000.6,N
1637906715.5,286046998.4,N
1637906735.3,286047000.7,N
1637906755.1,286046998.3,N
1637906775.9,286047001.1,N
1637906795.7,286047000.8,N
1637906815.5,286047001.0,N
1637906835.4,286047001.2,N
1637906855.2,286046998.3,N
1637906875.1,286047000.1,N
1637906876.0,286047000.1,N
1637906895.8,286047002.0,N
1637906915.6,286047002.4,N
1637906935.5,286047011.9,Y
1637906955.3,286047002.3,P
1637906975.2,286047002.2,N
1637906995.0,286047001.5,N
1637906995.9,286047001.5,N
1637907015.7,286047000.6,N
1637907035.6,286047000.3,N
1637907055.4,286046998.1,N
1637907075.3,286047000.8,N
1637907095.1,286047000.2,N
1637907115.8,286047000.2,N
1637907135.7,286047002.4,N
1637907155.5,286047000.1,N
1637907175.4,286046998.9,N
1637907195.2,286046998.6,N
1637907215.0,286046998.4,N
1637907215.9,286046998.4,N
1637907235.8,286046998.4,N
1637907255.6,286046998.1,N
1637907275.4,286047000.8,N
1637907295.3,286047001.2,N
1637907315.1,286046998.5,N
1637907335.9,286046998.1,N
1637907355.7,286047000.7,N
1637907375.5,286047000.4,N
1637907395.4,286047001.2,N
1637907415.2,286046998.5,N
1637907435.0,286046998.5,N
1637907435.9,286046998.5,N
1637907455.8,286046998.2,N
1637907475.6,286047000.8,N
1637907495.5,286047001.1,N
1637907515.3,286047001.2,N
1637907535.1,286046998.3,N
1637907555.9,286046998.5,N
1637907575.7,286046998.6,N
1637907595.5,286047000.3,N
1637907615.4,286047000.2,N
1637907635.2,286047002.6,N
1637907655.1,286046999.8,N
1637907656.0,286046999.8,N
1637907675.8,286047002.8,N
1637907695.6,286047002.6,N
1637907715.5,286047002.0,N
1637907735.3,286047002.3,N
1637907755.2,286047002.6,N
1637907775.9,286047000.1,N
1637907795.7,286047000.8,N
1637907815.6,286047001.2,N
1637907835.4,286046996.5,N
1637907855.2,286046999.1,N
1637907875.1,286046998.9,N
1637907876.0,286046998.9,N
1637907895.8,286046997.9,N
1637907915.7,286046993.5,Y
1637907935.5,286046994.5,P
1637907955.3,286046993.8,N
1637907975.2,286046992.5,N
1637907995.0,286046994.4,N
1637907995.9,286046994.4,N
1637908015.8,286046995.7,N
1637908035.6,286046995.2,N
1637908055.4,286046997.3,N
1637908075.3,286046998.9,N
1637908095.1,286047000.3,N
1637908115.8,286047000.9,N
1637908135.7,286047000.5,N
1637908155.5,286047001.0,N
1637908175.4,286047000.3,N
1637908195.2,286047000.8,N
1637908215.0,286046998.6,N
1637908215.9,286046998.6,N
1637908235.8,286047000.1,N
1637908255.6,286047000.7,N
1637908275.4,286047000.5,N
1637908295.3,286046998.6,N
1637908315.1,286046999.0,N
1637908335.9,286046999.5,N
1637908355.7,286046997.2,N
1637908375.5,286046996.9,N
1637908395.4,286046999.3,N
1637908415.2,286046998.8,N
1637908435.1,286047000.8,N
1637908436.0,286047000.8,N
1637908455.8,286046998.8,N
1637908475.6,286046999.2,N
1637908495.5,286047001.1,N
1637908515.3,286046998.7,N
1637908535.1,286046998.9,N
1637908555.9,286046999.1,N
1637908575.7,286046999.5,N
1637908595.6,286046996.9,N
1637908615.4,286046995.4,Y
1637908635.2,286046997.0,P
1637908655.1,286046994.9,P
1637908656.0,286046994.9,N
1637908675.8,286046997.5,N
1637908695.6,286046997.2,N
1637908715.5,286046996.7,N
1637908735.3,286046997.9,N
1637908755.2,286046997.3,N
1637908775.9,286046997.2,N
1637908795.7,286046997.6,N
1637908815.6,286046997.2,N
1637908835.4,286046996.2,Y
1637908855.3,286046996.6,P
1637908875.1,286046999.6,N
1637908876.0,286046999.6,N
1637908895.8,286046996.9,N
1637908915.7,286046997.3,N
1637908935.5,286046997.1,N
1637908955.3,286046999.3,N
1637908975.2,286046998.9,N
1637908995.0,286046996.5,N
1637908995.9,286046996.5,N
1637909015.8,286046999.6,N
1637909035.6,286046999.4,N
1637909055.4,286046998.8,N
1637909075.3,286046998.8,N
1637909095.1,286046999.4,N
1637909115.8,286046998.7,N
1637909135.7,286046998.5,N
1637909155.5,286046999.4,N
1637909175.4,286046998.4,N
1637909195.2,286046998.8,N
1637909215.0,286046998.7,N
1637909215.9,286046998.7,N
1637909235.8,286047000.8,N
1637909255.6,286046998.7,N
1637909275.4,286046998.9,N
1637909295.3,286046997.0,N
1637909315.1,286046995.0,Y
1637909335.9,286046997.0,P
1637909355.7,286046999.5,N
1637909375.5,286046997.1,N
1637909395.4,286046999.3,N
1637909415.2,286047001.2,N
1637909435.0,286047000.8,N
1637909435.9,286047000.8,N
1637909455.8,286046998.5,N
1637909475.6,286047000.6,N
1637909495.5,286046998.1,N
1637909515.3,286047000.7,N
1637909535.1,286046998.9,N
1637909555.9,286046999.6,N
1637909575.7,286046995.0,Y
1637909595.6,286046994.9,P
1637909645.4,286046999.4,E
1637909655.4,286046999.5,N
1637909675.2,286046999.3,P
1637909695.0,286046997.3,P
1637909695.9,286046997.3,N
1637909715.8,286046997.6,N
1637909735.6,286046997.1,N
1637909755.4,286046997.2,N
1637909775.3,286046996.5,Y
1637909795.1,286046998.7,P
1637909815.9,286046998.1,P
1637909835.7,286047002.8,P
1637909855.5,286047002.4,N
1637909875.4,286047002.7,N
1637909895.2,286047002.4,N
1637909915.0,286047002.4,N
1637909915.9,286047002.4,N
1637909935.8,286047000.1,N
1637909955.6,286047000.6,N
1637909975.5,286047000.0,N
1637909995.3,286047000.0,N
